Time,TemperatureF,DewpointF,PressureIn,WindDirection,WindDirectionDegrees,WindSpeedMPH,WindSpeedGustMPH,Humidity,HourlyPrecipIn,Conditions,Clouds,dailyrainin,SoftwareType,DateUTC
2013-06-08 00:03:00,61.0,59.0,29.90,South,175,0.0,2.0,92,0.00,,,1.11,,2013-06-08 04:03:00,
2013-06-08 00:13:00,61.0,59.0,29.90,South,175,0.0,2.0,92,0.00,,,1.11,,2013-06-08 04:13:00,
2013-06-08 00:23:00,62.0,60.0,29.90,South,174,0.0,0.0,93,0.00,,,1.11,,2013-06-08 04:23:00,
2013-06-08 00:33:00,62.0,60.0,29.90,South,174,0.0,0.0,92,0.00,,,1.11,,2013-06-08 04:33:00,
2013-06-08 00:42:00,62.0,60.0,29.90,South,174,0.0,0.0,92,0.00,,,1.11,,2013-06-08 04:42:00,
2013-06-08 00:53:00,62.0,60.0,29.90,South,174,0.0,0.0,93,0.00,,,1.11,,2013-06-08 04:53:00,
2013-06-08 01:02:00,62.0,60.0,29.90,South,174,0.0,0.0,93,0.00,,,1.11,,2013-06-08 05:02:00,
2013-06-08 01:12:00,62.0,60.0,29.90,South,174,0.0,0.0,93,0.00,,,1.11,,2013-06-08 05:12:00,
2013-06-08 01:22:00,62.0,60.0,29.90,South,174,0.0,0.0,94,0.00,,,1.11,,2013-06-08 05:22:00,
2013-06-08 01:32:00,61.0,59.0,29.90,South,174,0.0,2.0,94,0.00,,,1.11,,2013-06-08 05:32:00,
2013-06-08 01:42:00,61.0,59.0,29.90,South,174,0.0,2.0,94,0.00,,,1.11,,2013-06-08 05:42:00,
2013-06-08 01:52:00,61.0,59.0,29.90,South,174,0.0,1.0,92,0.00,,,1.11,,2013-06-08 05:52:00,
2013-06-08 02:02:00,61.0,59.0,29.90,South,174,0.0,1.0,92,0.00,,,1.11,,2013-06-08 06:02:00,
2013-06-08 02:13:00,61.0,59.0,29.90,South,174,0.0,1.0,92,0.00,,,1.11,,2013-06-08 06:13:00,
2013-06-08 02:22:00,61.0,58.0,29.90,South,174,1.0,4.0,91,0.00,,,1.11,,2013-06-08 06:22:00,
2013-06-08 02:32:00,60.0,57.0,29.90,South,174,0.0,2.0,91,0.01,,,0.76,,2013-06-08 06:32:00,
2013-06-08 02:42:00,60.0,57.0,29.90,South,174,0.0,2.0,91,0.01,,,0.76,,2013-06-08 06:42:00,
2013-06-08 02:52:00,60.0,57.0,29.90,South,175,0.0,1.0,91,0.01,,,0.76,,2013-06-08 06:52:00,
2013-06-08 03:02:00,60.0,57.0,29.90,South,174,0.0,3.0,90,0.05,,,0.80,,2013-06-08 07:02:00,
2013-06-08 03:12:00,60.0,57.0,29.90,South,174,0.0,3.0,90,0.05,,,0.80,,2013-06-08 07:12:00,
2013-06-08 03:22:00,60.0,58.0,29.90,South,174,0.0,3.0,92,0.10,,,0.85,,2013-06-08 07:22:00,
2013-06-08 03:32:00,59.0,57.0,29.90,South,174,1.0,6.0,94,0.09,,,0.77,,2013-06-08 07:32:00,
2013-06-08 03:42:00,59.0,57.0,29.90,South,174,1.0,6.0,94,0.09,,,0.77,,2013-06-08 07:42:00,
2013-06-08 03:52:00,59.0,57.0,29.90,South,173,1.0,5.0,94,0.09,,,0.77,,2013-06-08 07:52:00,
2013-06-08 04:02:00,59.0,58.0,29.90,South,173,0.0,5.0,95,0.05,,,0.77,,2013-06-08 08:02:00,
2013-06-08 04:12:00,59.0,58.0,29.90,South,173,0.0,5.0,95,0.05,,,0.77,,2013-06-08 08:12:00,
2013-06-08 04:22:00,59.0,58.0,29.90,South,170,2.0,7.0,95,0.00,,,0.77,,2013-06-08 08:22:00,
2013-06-08 04:32:00,58.0,57.0,29.90,South,172,1.0,9.0,95,0.00,,,0.70,,2013-06-08 08:32:00,
2013-06-08 04:42:00,58.0,57.0,29.90,South,172,1.0,9.0,95,0.00,,,0.70,,2013-06-08 08:42:00,
2013-06-08 04:52:00,58.0,57.0,29.91,South,170,1.0,5.0,95,0.00,,,0.70,,2013-06-08 08:52:00,
2013-06-08 05:02:00,58.0,57.0,29.91,South,170,1.0,7.0,95,0.00,,,0.70,,2013-06-08 09:02:00,
2013-06-08 05:12:00,58.0,57.0,29.91,South,170,1.0,7.0,95,0.00,,,0.70,,2013-06-08 09:12:00,
2013-06-08 05:22:00,58.0,57.0,29.91,South,170,2.0,8.0,96,0.00,,,0.70,,2013-06-08 09:22:00,
2013-06-08 05:33:00,58.0,56.0,29.91,South,172,0.0,5.0,94,0.00,,,0.64,,2013-06-08 09:33:00,
2013-06-08 05:43:00,58.0,56.0,29.91,South,172,0.0,5.0,94,0.00,,,0.64,,2013-06-08 09:43:00,
2013-06-08 05:53:00,59.0,57.0,29.92,South,172,0.0,3.0,93,0.00,,,0.64,,2013-06-08 09:53:00,
2013-06-08 06:03:00,59.0,57.0,29.92,South,172,0.0,1.0,93,0.00,,,0.64,,2013-06-08 10:03:00,
2013-06-08 06:12:00,59.0,57.0,29.92,South,172,0.0,1.0,93,0.00,,,0.64,,2013-06-08 10:12:00,
2013-06-08 06:22:00,58.0,56.0,29.93,South,172,0.0,3.0,94,0.00,,,0.64,,2013-06-08 10:22:00,
2013-06-08 06:33:00,58.0,57.0,29.93,South,172,0.0,1.0,95,0.00,,,0.62,,2013-06-08 10:33:00,
2013-06-08 06:43:00,58.0,57.0,29.93,South,172,0.0,1.0,95,0.00,,,0.62,,2013-06-08 10:43:00,
2013-06-08 06:52:00,58.0,57.0,29.93,South,172,0.0,2.0,95,0.00,,,0.62,,2013-06-08 10:52:00,
2013-06-08 07:03:00,58.0,57.0,29.94,South,172,0.0,2.0,96,0.00,,,0.62,,2013-06-08 11:03:00,
2013-06-08 07:12:00,58.0,57.0,29.94,South,172,0.0,2.0,96,0.00,,,0.62,,2013-06-08 11:12:00,
2013-06-08 07:22:00,58.0,57.0,29.95,South,172,0.0,1.0,96,0.00,,,0.62,,2013-06-08 11:22:00,
2013-06-08 07:32:00,58.0,57.0,29.96,South,172,0.0,2.0,96,0.00,,,0.62,,2013-06-08 11:32:00,
2013-06-08 07:42:00,58.0,57.0,29.96,South,172,0.0,2.0,96,0.00,,,0.62,,2013-06-08 11:42:00,
2013-06-08 07:52:00,59.0,58.0,29.96,South,172,0.0,2.0,96,0.00,,,0.62,,2013-06-08 11:52:00,
2013-06-08 08:02:00,60.0,59.0,29.96,South,172,0.0,2.0,95,0.00,,,0.62,,2013-06-08 12:02:00,
2013-06-08 08:12:00,60.0,59.0,29.96,South,172,0.0,2.0,95,0.00,,,0.62,,2013-06-08 12:12:00,
2013-06-08 08:22:00,60.0,58.0,29.97,South,172,0.0,1.0,93,0.00,,,0.62,,2013-06-08 12:22:00,
2013-06-08 08:33:00,61.0,59.0,29.97,South,172,0.0,1.0,92,0.00,,,0.61,,2013-06-08 12:33:00,
2013-06-08 08:42:00,61.0,59.0,29.97,South,172,0.0,1.0,92,0.00,,,0.61,,2013-06-08 12:42:00,
2013-06-08 08:52:00,62.0,60.0,29.98,South,172,0.0,0.0,92,0.00,,,0.61,,2013-06-08 12:52:00,
2013-06-08 09:02:00,62.0,59.0,29.98,South,172,0.0,2.0,91,0.00,,,0.61,,2013-06-08 13:02:00,
2013-06-08 09:12:00,62.0,59.0,29.98,South,172,0.0,2.0,91,0.00,,,0.61,,2013-06-08 13:12:00,
2013-06-08 09:22:00,63.0,59.0,29.99,South,174,1.0,5.0,86,0.00,,,0.61,,2013-06-08 13:22:00,
2013-06-08 09:32:00,64.0,59.0,30.00,South,176,0.0,7.0,85,0.00,,,0.61,,2013-06-08 13:32:00,
2013-06-08 09:42:00,64.0,59.0,30.00,South,176,0.0,7.0,85,0.00,,,0.61,,2013-06-08 13:42:00,
2013-06-08 09:52:00,65.0,59.0,30.00,South,173,1.0,8.0,82,0.00,,,0.61,,2013-06-08 13:52:00,
2013-06-08 10:02:00,67.0,61.0,30.01,South,173,0.0,3.0,82,0.00,,,0.61,,2013-06-08 14:02:00,
2013-06-08 10:12:00,67.0,61.0,30.01,South,173,0.0,3.0,82,0.00,,,0.61,,2013-06-08 14:12:00,
2013-06-08 10:22:00,67.0,61.0,30.01,South,173,0.0,3.0,80,0.00,,,0.61,,2013-06-08 14:22:00,
2013-06-08 10:32:00,69.0,61.0,30.02,South,173,1.0,4.0,77,0.00,,,0.56,,2013-06-08 14:32:00,
2013-06-08 10:42:00,69.0,61.0,30.02,South,173,1.0,4.0,77,0.00,,,0.56,,2013-06-08 14:42:00,
2013-06-08 10:52:00,70.0,61.0,30.02,South,173,1.0,4.0,74,0.00,,,0.56,,2013-06-08 14:52:00,
2013-06-08 11:02:00,70.0,61.0,30.02,South,173,1.0,6.0,74,0.00,,,0.56,,2013-06-08 15:02:00,
2013-06-08 11:12:00,70.0,61.0,30.02,South,173,1.0,6.0,74,0.00,,,0.56,,2013-06-08 15:12:00,
2013-06-08 11:22:00,71.0,61.0,30.03,South,175,0.0,5.0,71,0.00,,,0.56,,2013-06-08 15:22:00,
2013-06-08 11:33:00,70.0,62.0,30.03,South,174,0.0,4.0,75,0.00,,,0.56,,2013-06-08 15:33:00,
2013-06-08 11:43:00,70.0,62.0,30.03,South,174,0.0,4.0,75,0.00,,,0.56,,2013-06-08 15:43:00,
2013-06-08 11:53:00,70.0,64.0,30.03,South,175,0.0,3.0,81,0.00,,,0.56,,2013-06-08 15:53:00,
2013-06-08 12:03:00,70.0,65.0,30.04,South,174,0.0,1.0,84,0.00,,,0.56,,2013-06-08 16:03:00,
2013-06-08 12:12:00,70.0,65.0,30.04,South,174,0.0,1.0,84,0.00,,,0.56,,2013-06-08 16:12:00,
2013-06-08 12:23:00,70.0,64.0,30.04,South,174,0.0,2.0,82,0.00,,,0.56,,2013-06-08 16:23:00,
2013-06-08 12:33:00,69.0,65.0,30.05,South,174,0.0,2.0,86,0.00,,,0.56,,2013-06-08 16:33:00,
2013-06-08 12:42:00,69.0,65.0,30.05,South,174,0.0,2.0,86,0.00,,,0.56,,2013-06-08 16:42:00,
2013-06-08 12:53:00,71.0,64.0,30.05,South,174,0.0,2.0,79,0.00,,,0.56,,2013-06-08 16:53:00,
2013-06-08 13:02:00,73.0,61.0,30.05,South,174,1.0,4.0,65,0.00,,,0.56,,2013-06-08 17:02:00,
2013-06-08 13:12:00,73.0,61.0,30.05,South,174,1.0,4.0,65,0.00,,,0.56,,2013-06-08 17:12:00,
2013-06-08 13:23:00,74.0,61.0,30.05,South,174,1.0,6.0,63,0.00,,,0.56,,2013-06-08 17:23:00,
2013-06-08 13:32:00,76.0,60.0,30.05,South,175,1.0,4.0,58,0.00,,,0.56,,2013-06-08 17:32:00,
2013-06-08 13:42:00,76.0,60.0,30.05,South,175,1.0,4.0,58,0.00,,,0.56,,2013-06-08 17:42:00,
2013-06-08 13:52:00,75.0,61.0,30.05,South,174,1.0,4.0,61,0.00,,,0.56,,2013-06-08 17:52:00,
2013-06-08 14:02:00,76.0,60.0,30.05,South,174,0.0,5.0,58,0.00,,,0.56,,2013-06-08 18:02:00,
2013-06-08 14:12:00,76.0,60.0,30.05,South,174,0.0,5.0,58,0.00,,,0.56,,2013-06-08 18:12:00,
2013-06-08 14:22:00,74.0,59.0,30.05,South,176,0.0,8.0,60,0.00,,,0.56,,2013-06-08 18:22:00,
2013-06-08 14:32:00,72.0,59.0,30.04,South,176,0.0,4.0,64,0.00,,,0.56,,2013-06-08 18:32:00,
2013-06-08 14:42:00,72.0,59.0,30.04,South,176,0.0,4.0,64,0.00,,,0.56,,2013-06-08 18:42:00,
2013-06-08 14:52:00,75.0,60.0,30.04,South,176,0.0,3.0,59,0.00,,,0.56,,2013-06-08 18:52:00,
2013-06-08 15:03:00,75.0,60.0,30.04,South,173,1.0,6.0,59,0.00,,,0.56,,2013-06-08 19:03:00,
2013-06-08 15:13:00,75.0,60.0,30.04,South,173,1.0,6.0,59,0.00,,,0.56,,2013-06-08 19:13:00,
2013-06-08 15:22:00,75.0,61.0,30.04,South,174,0.0,5.0,62,0.00,,,0.56,,2013-06-08 19:22:00,
2013-06-08 15:32:00,76.0,61.0,30.04,South,174,0.0,2.0,60,0.00,,,0.56,,2013-06-08 19:32:00,
2013-06-08 15:42:00,76.0,61.0,30.04,South,174,0.0,2.0,60,0.00,,,0.56,,2013-06-08 19:42:00,
2013-06-08 15:53:00,76.0,61.0,30.04,South,174,0.0,5.0,60,0.00,,,0.56,,2013-06-08 19:53:00,
2013-06-08 16:02:00,76.0,60.0,30.04,South,175,0.0,1.0,58,0.00,,,0.56,,2013-06-08 20:02:00,
2013-06-08 16:12:00,76.0,60.0,30.04,South,175,0.0,1.0,58,0.00,,,0.56,,2013-06-08 20:12:00,
2013-06-08 16:22:00,76.0,61.0,30.04,South,175,0.0,2.0,59,0.00,,,0.56,,2013-06-08 20:22:00,
2013-06-08 16:32:00,77.0,66.0,30.04,South,174,0.0,1.0,68,0.00,,,0.56,,2013-06-08 20:32:00,
2013-06-08 16:42:00,77.0,66.0,30.04,South,174,0.0,1.0,68,0.00,,,0.56,,2013-06-08 20:42:00,
2013-06-08 16:52:00,74.0,66.0,30.04,South,174,0.0,3.0,75,0.00,,,0.56,,2013-06-08 20:52:00,
2013-06-08 17:02:00,74.0,66.0,30.04,South,174,0.0,1.0,75,0.00,,,0.56,,2013-06-08 21:02:00,
2013-06-08 17:13:00,74.0,66.0,30.04,South,174,0.0,1.0,75,0.00,,,0.56,,2013-06-08 21:13:00,
2013-06-08 17:22:00,75.0,65.0,30.04,South,174,0.0,2.0,72,0.00,,,0.56,,2013-06-08 21:22:00,
2013-06-08 17:33:00,73.0,65.0,30.05,South,175,0.0,3.0,76,0.00,,,0.56,,2013-06-08 21:33:00,
2013-06-08 17:43:00,73.0,65.0,30.05,South,175,0.0,3.0,76,0.00,,,0.56,,2013-06-08 21:43:00,
2013-06-08 17:53:00,71.0,65.0,30.06,South,174,0.0,2.0,80,0.00,,,0.56,,2013-06-08 21:53:00,
2013-06-08 18:02:00,71.0,65.0,30.06,South,174,0.0,2.0,81,0.00,,,0.56,,2013-06-08 22:02:00,
2013-06-08 18:12:00,71.0,65.0,30.06,South,174,0.0,2.0,81,0.00,,,0.56,,2013-06-08 22:12:00,
2013-06-08 18:23:00,70.0,64.0,30.06,South,174,0.0,0.0,81,0.00,,,0.56,,2013-06-08 22:23:00,
2013-06-08 18:33:00,70.0,65.0,30.06,South,174,0.0,1.0,85,0.00,,,0.56,,2013-06-08 22:33:00,
2013-06-08 18:42:00,70.0,64.0,30.06,South,174,0.0,1.0,81,0.00,,,0.56,,2013-06-08 22:42:00,
2013-06-08 18:52:00,70.0,64.0,30.06,South,174,0.0,1.0,81,0.00,,,0.56,,2013-06-08 22:52:00,
2013-06-08 19:02:00,70.0,65.0,30.05,South,174,0.0,0.0,83,0.00,,,0.56,,2013-06-08 23:02:00,
2013-06-08 19:12:00,70.0,65.0,30.05,South,174,0.0,0.0,83,0.00,,,0.56,,2013-06-08 23:12:00,
2013-06-08 19:22:00,69.0,64.0,30.05,South,174,0.0,0.0,85,0.00,,,0.56,,2013-06-08 23:22:00,
2013-06-08 19:32:00,69.0,65.0,30.06,South,175,0.0,1.0,86,0.00,,,0.56,,2013-06-08 23:32:00,
2013-06-08 19:42:00,69.0,65.0,30.06,South,175,0.0,1.0,86,0.00,,,0.56,,2013-06-08 23:42:00,
2013-06-08 19:52:00,69.0,65.0,30.07,South,174,0.0,0.0,86,0.00,,,0.56,,2013-06-08 23:52:00,
2013-06-08 20:02:00,68.0,64.0,30.08,South,174,0.0,0.0,87,0.00,,,0.56,,2013-06-09 00:02:00,
2013-06-08 20:12:00,68.0,64.0,30.08,South,174,0.0,0.0,87,0.00,,,0.56,,2013-06-09 00:12:00,
2013-06-08 20:22:00,68.0,65.0,30.08,South,174,0.0,1.0,89,0.00,,,0.56,,2013-06-09 00:22:00,
2013-06-08 20:32:00,67.0,64.0,30.08,South,174,0.0,1.0,89,0.00,,,0.54,,2013-06-09 00:32:00,
2013-06-08 20:42:00,67.0,64.0,30.08,South,174,0.0,1.0,89,0.00,,,0.54,,2013-06-09 00:42:00,
2013-06-08 20:52:00,66.0,63.0,30.09,South,174,0.0,1.0,89,0.00,,,0.54,,2013-06-09 00:52:00,
2013-06-08 21:02:00,66.0,63.0,30.09,South,175,1.0,3.0,91,0.00,,,0.54,,2013-06-09 01:02:00,
2013-06-08 21:12:00,66.0,63.0,30.09,South,175,1.0,3.0,91,0.00,,,0.54,,2013-06-09 01:12:00,
2013-06-08 21:22:00,66.0,63.0,30.09,South,175,0.0,5.0,91,0.00,,,0.54,,2013-06-09 01:22:00,
2013-06-08 21:32:00,66.0,64.0,30.10,South,174,1.0,3.0,92,0.00,,,0.38,,2013-06-09 01:32:00,
2013-06-08 21:42:00,66.0,64.0,30.10,South,174,1.0,3.0,92,0.00,,,0.38,,2013-06-09 01:42:00,
2013-06-08 21:52:00,66.0,63.0,30.11,South,174,1.0,3.0,91,0.00,,,0.38,,2013-06-09 01:52:00,
2013-06-08 22:02:00,66.0,63.0,30.11,South,174,0.0,3.0,90,0.00,,,0.38,,2013-06-09 02:02:00,
2013-06-08 22:12:00,66.0,63.0,30.11,South,174,0.0,3.0,90,0.00,,,0.38,,2013-06-09 02:12:00,
2013-06-08 22:22:00,66.0,63.0,30.12,South,175,1.0,5.0,90,0.00,,,0.38,,2013-06-09 02:22:00,
2013-06-08 22:32:00,66.0,63.0,30.12,South,174,1.0,3.0,91,0.00,,,0.12,,2013-06-09 02:32:00,
2013-06-08 22:42:00,66.0,63.0,30.12,South,174,1.0,3.0,91,0.00,,,0.12,,2013-06-09 02:42:00,
2013-06-08 22:52:00,66.0,63.0,30.12,South,174,0.0,2.0,91,0.00,,,0.12,,2013-06-09 02:52:00,
2013-06-08 23:02:00,66.0,63.0,30.13,South,174,0.0,4.0,91,0.00,,,0.12,,2013-06-09 03:02:00,
2013-06-08 23:12:00,66.0,63.0,30.13,South,174,0.0,4.0,91,0.00,,,0.12,,2013-06-09 03:12:00,
2013-06-08 23:22:00,66.0,63.0,30.14,South,174,0.0,3.0,91,0.00,,,0.12,,2013-06-09 03:22:00,
2013-06-08 23:33:00,66.0,63.0,30.13,South,175,0.0,4.0,91,0.00,,,0.10,,2013-06-09 03:33:00,
2013-06-08 23:43:00,66.0,63.0,30.13,South,175,0.0,4.0,91,0.00,,,0.10,,2013-06-09 03:43:00,
2013-06-08 23:53:00,66.0,63.0,30.14,South,174,0.0,4.0,90,0.00,,,0.10,,2013-06-09 03:53:00,